Regional Weather Roundup
Issued by NWS

Home | Current Version | Previous Version | Text Only | Print | Product List | Glossary Off
Versions: 1 2 3 4 5 6 7 8 9 10 11 12 13 14 15 16 17 18 19 20 21 22 23 24 25 26 27 28 29 30 31 32 33 34 35 36 37 38 39 40 41 42 43 44 45 46 47 48 49 50

000
ASUS45 KABQ 210510
RWRNM
NEW MEXICO REGIONAL WEATHER ROUNDUP
NATIONAL WEATHER SERVICE ALBUQUERQUE NM
1000 PM MST TUE FEB 20 2018

NOTE: "FAIR" MEANS FEW OR NO CLOUDS BELOW 12,000 FEET AGL WITH NO
       SIGNIFICANT WEATHER OR OBSTRUCTIONS TO VISION.

      THIS PRODUCT IS RELEASED AS TWO VERSIONS.  ONE VERSION NEAR
      THE TOP OF THE HOUR CONTAINING PRELIMINARY DATA FROM ALBUQUERQUE
      AND OTHER STATIONS.  A FINAL VERSION WITH ADDITIONAL DATA IS
      ISSUED ABOUT 10 MINUTES AFTER THE HOUR.

NMZ501-503-504-510>518-210600-
NORTHWEST PLATEAU/NORTHCENTRAL MOUNTAINS

CITY           SKY/WX    TMP DP  RH WIND       PRES   REMARKS
FARMINGTON     FAIR      22  10  60 NE3       30.10R
LOS ALAMOS     CLOUDY    26  12  56 E5        30.08S WCI  20
SANTA FE       FAIR      27  17  66 NW6       30.08R WCI  20
TAOS           CLOUDY    23  14  68 SE6       30.11R WCI  16
ANGEL FIRE     FLURRIES  17  11  79 S7        30.07R WCI   7

$$
NMZ402-403-502-505>509-210600-
WESTCENTRAL MOUNTAINS/SOUTHWEST MOUNTAINS

CITY           SKY/WX    TMP DP  RH WIND       PRES   REMARKS
GALLUP         FAIR      12   8  84 E6        30.08R WCI   3
GRANTS         CLOUDY    25  17  70 CALM      30.10S
SILVER CITY    FAIR      30  27  88 NW8       30.07R WCI  23

$$
NMZ407-409-411-412-210600-
SOUTHERN DESERTS

CITY           SKY/WX    TMP DP  RH WIND       PRES   REMARKS
DEMING         FAIR      38  31  76 S6        30.08R WCI  33
LAS CRUCES     FAIR      42  33  70 N5        30.07R
HOLLOMAN AFB   FAIR      43  32  67 N5        30.07R
ALAMOGORDO     FAIR      45  32  61 NE6       30.06R
T OR C         FAIR      43  27  53 NW6       30.06R

$$
NMZ519>523-210600-
CENTRAL VALLEYS/CENTRAL HIGHLANDS

CITY           SKY/WX    TMP DP  RH WIND       PRES   REMARKS
ALBUQUERQUE    MOCLDY    35  15  44 N7        30.11R WCI  29
DOUBLE EAGLE   PTCLDY    25  12  58 CALM      30.11R
MORIARTY ARPT  FAIR      25  20  83 NE5       30.11R WCI  19
CLINES CORNERS FAIR      23  15  71 NW7       30.09  WCI  15
BELEN          CLOUDY    33  18  53 N6        30.11R WCI  28
SOCORRO        FAIR      37  22  52 N10       30.11R WCI  30

$$
NMZ524>526-539-540-210600-
SOUTHCENTRAL MOUNTAINS

CITY           SKY/WX    TMP DP  RH WIND       PRES   REMARKS
RUIDOSO        NOT AVBL

$$
NMZ527>531-210600-
NORTHEAST HIGHLANDS/NORTHEAST PLAINS

CITY           SKY/WX    TMP DP  RH WIND       PRES   REMARKS
LAS VEGAS      FAIR      22  14  71 S13       30.06R WCI  10
RATON          FAIR      23   6  48 N5        30.09R WCI  17
CLAYTON        FAIR      12   0  58 NE8       30.21R WCI   0

$$
NMZ532>537-210600-
EASTCENTRAL PLAINS

CITY           SKY/WX    TMP DP  RH WIND       PRES   REMARKS
SANTA ROSA     CLOUDY    37  17  45 E13       30.12R WCI  29
TUCUMCARI      FAIR      28   5  37 NE13      30.19R WCI  17
CANNON AFB     FAIR      29  12  49 NE17      30.16R WCI  17
CLOVIS AIRPORT NOT AVBL

$$
NMZ028-029-538-210600-
SOUTHEAST PLAINS

CITY           SKY/WX    TMP DP  RH WIND       PRES   REMARKS
ROSWELL        CLOUDY    53  30  41 N23G29    30.02R
ARTESIA        FAIR      46  32  57 NW7       30.01R
CARLSBAD       FAIR      50  33  52 N7        30.00R
HOBBS          FAIR      37  23  56 E16       30.07R WCI  28


$$



USA.gov is the U.S. government's official web portal to all federal, state and local government web resources and services.